MOLNIYA 1-32

Last updated on Oct. 29, 2020, 5:52 a.m. UTC

1 08601U 76006A   20298.58996513 -.00000674  00000-0  11134-2 0  9991
2 08601  62.8833  29.3098 7423139 280.3556  10.9192  2.00084196326986
UTC
Height (km)
Latitude
Longitude
Inclination
Orbital Period
UTC large
Height (km)
Speed (km/s)
/
Latitude / Longitude
Inclination (degrees)
Orbital Period (minutes)
Azimuth
Elevation
Range (km)
Doppler Factor
iOS Compass Heading
iOS Angle

Next 30 passes for location: Hong Kong

Rise time Rise Azimuth (degrees) Set time Set Azimuth (degrees) Duration Max altitude (degrees)

No matching passes for this satellites